Location: Huberhof
(49.2050°N, 7.4980°E)
Time: 01:09:39
(UTC+00:00)

ATLAS 5 CENTAUR R/B - Pass Details

Date: 29 October 2020
Orbit: 531 x 1127 km, 63.4° (Epoch: 22 November)

Event Time Altitude Azimuth Distance (km) Brightness Sun altitude
Rises 19:54:57 0° 316° (NW) 3,082 6.0 -36.2°
Reaches altitude 10° 19:57:31 10° 329° (NNW) 2,258 5.0 -36.6°
Enters shadow 19:59:01 17° 343° (NNW) 1,870 4.3 -36.8°
